Wind_Speed
111 113 114 115 117 119 120 120 121 121 122 122 121 120 119 118 117 116 114 113 113 113 113 114 115 116 117 118 119 120 121 121 121 121 121 121 120 119 119 118 117 116 115 113 112 110 109 108 106 105 104 103 103 102 101 101 100 100 99 99 98 97 97 96 95 94 93 92 91 90 90 89 89 89 89 89 89 88 89 89 89 89 89 89 89 90
114 115 117 118 119 120 121 121 121 121 121 121 120 119 117 116 115 114 113 112 113 114 115 116 118 119 120 121 122 122 122 122 122 121 120 119 118 117 116 115 114 112 111 109 108 106 105 104 103 101 101 100 99 98 98 97 97 96 96 95 95 94 93 93 92 91 90 89 88 88 87 87 87 87 86 86 86 86 86 86 86 86 86 86 86 87
116 118 119 119 120 121 121 121 121 120 120 119 118 116 115 114 113 113 113 114 115 117 118 119 121 122 122 123 123 123 123 122 121 120 118 117 116 114 113 111 110 109 107 105 104 103 101 100 99 98 97 96 96 95 94 94 94 93 93 92 92 91 90 89 88 88 87 86 85 85 85 85 84 84 84 84 84 84 83 83 83 83 84 84 84 84
118 119 120 120 120 120 120 120 120 119 118 116 115 114 113 113 113 114 115 116 118 119 121 122 123 123 124 124 123 123 122 120 119 117 115 113 112 110 109 108 106 105 103 102 100 99 98 97 96 95 94 93 92 92 91 91 90 90 90 89 89 88 87 86 86 85 84 83 83 83 83 82 82 82 82 82 81 81 81 81 81 81 81 81 82 82
119 119 120 120 120 120 119 119 118 117 115 114 113 112 112 113 115 116 118 119 121 122 123 124 124 124 124 123 122 121 119 117 115 113 111 109 108 107 105 104 102 101 99 98 97 96 94 93 92 91 91 90 89 89 88 88 88 87 87 86 86 85 85 84 83 82 81 81 81 81 80 80 80 80 80 80 79 79 79 79 79 79 79 79 79 80
119 119 119 119 119 119 118 117 116 115 114 113 113 113 114 115 117 119 120 122 123 124 125 125 125 124 123 121 120 118 115 113 111 109 107 106 104 103 102 100 99 97 96 95 93 92 91 90 89 89 88 87 87 86 85 85 85 84 84 84 83 83 82 81 80 80 80 79 79 79 78 78 78 78 78 78 77 77 77 77 77 77 77 77 77 78
119 119 118 118 118 117 116 115 114 113 113 113 114 115 116 118 119 121 123 124 125 125 125 125 123 122 120 118 116 113 111 108 106 105 103 102 101 100 98 97 96 94 93 91 90 89 88 87 86 86 85 84 84 83 83 83 82 82 82 81 81 80 80 79 78 78 78 77 77 77 76 76 76 75 75 75 75 75 75 75 76 75 75 75 75 76
119 118 117 117 116 115 114 113 113 113 113 115 116 118 119 120 122 123 124 125 125 125 124 122 121 118 116 113 111 108 106 104 102 101 100 99 98 97 95 94 92 91 90 88 87 86 85 84 84 83 82 82 81 81 80 80 80 80 79 79 78 78 77 77 77 76 76 76 75 75 74 74 74 73 73 73 73 73 73 73 74 74 74 74 74 74
118 117 116 115 114 113 113 113 114 114 115 116 118 120 121 123 124 125 125 125 124 122 121 119 116 114 111 109 106 104 102 100 99 98 97 96 95 93 92 91 89 88 87 85 84 83 82 82 81 81 80 79 79 78 78 78 78 77 77 76 76 76 75 75 75 74 74 74 73 73 72 72 71 71 71 71 71 71 71 71 71 71 72 72 72 72
116 115 114 114 113 113 113 114 115 116 117 119 120 121 123 124 125 125 124 123 121 118 116 114 112 109 107 105 102 100 98 97 96 95 94 93 92 90 89 88 86 85 84 83 82 81 80 79 79 78 78 77 76 76 76 76 75 75 74 74 74 73 73 73 73 72 72 72 71 71 70 70 69 69 69 68 68 68 68 69 69 69 69 69 70 70
115 113 113 113 113 113 114 115 117 118 119 121 122 123 123 124 124 123 122 119 117 114 111 109 107 105 103 101 99 97 95 94 93 92 91 90 89 87 86 85 84 82 81 80 79 78 77 77 76 76 75 74 74 74 73 73 73 72 72 71 71 71 71 71 70 70 70 69 69 68 68 68 67 67 67 66 66 66 66 66 66 67 67 67 67 68
113 112 112 113 114 115 116 117 118 119 121 122 123 124 124 123 121 119 117 115 112 110 107 105 103 101 99 97 95 93 92 91 90 89 88 87 86 84 83 82 81 80 79 77 77 76 75 74 74 73 73 72 72 71 71 71 70 70 69 69 69 69 68 68 68 68 67 67 67 66 66 65 65 65 65 64 64 64 64 64 64 64 64 65 65 65
112 112 113 114 115 116 118 119 120 121 123 123 124 124 123 121 118 115 113 110 108 105 103 102 100 98 96 94 92 90 89 88 87 87 86 84 83 81 80 79 78 77 76 75 74 73 73 72 72 71 70 70 69 69 68 68 67 67 66 66 66 66 66 66 66 65 65 65 65 64 64 64 63 63 63 63 62 62 62 62 62 62 62 62 63 63
112 113 114 116 117 118 119 121 122 123 124 124 123 122 120 117 114 111 109 106 104 101 100 98 97 95 93 91 88 86 85 85 85 84 83 82 80 79 78 77 76 75 74 73 72 71 71 70 69 68 68 67 67 66 66 65 64 64 64 64 64 64 64 63 63 63 63 63 62 62 62 62 61 61 61 61 61 60 60 60 60 60 60 60 60 61
113 115 116 118 119 120 121 123 124 124 124 123 121 119 116 113 110 107 105 103 100 98 97 95 94 92 90 88 85 83 82 82 82 82 81 80 78 76 75 74 73 72 71 70 69 69 68 67 67 66 65 65 64 64 63 62 62 61 61 61 61 61 61 61 61 61 61 60 60 60 60 60 60 60 59 59 59 59 59 59 59 58 58 58 58 59
115 116 118 119 121 122 123 124 125 124 123 120 118 115 112 110 107 104 102 100 98 95 94 92 91 89 88 85 83 80 79 78 79 79 79 78 76 74 72 71 70 70 69 68 67 67 66 65 64 64 63 62 62 61 60 60 59 59 59 59 59 59 59 59 59 59 58 58 58 58 58 58 58 58 58 58 57 57 57 57 57 57 57 57 56 57
117 118 120 121 123 124 124 124 124 122 120 117 114 111 109 106 104 101 99 97 95 93 91 89 87 86 85 83 81 78 76 76 76 76 76 75 74 72 70 68 67 67 66 65 65 64 63 63 62 61 61 60 59 59 58 57 57 57 57 57 57 57 57 57 57 57 56 56 56 56 56 56 56 56 56 56 56 56 56 56 56 56 56 55 55 55
119 120 121 123 124 125 125 124 122 119 116 113 110 108 105 103 101 99 96 94 92 90 88 86 84 83 82 80 79 77 75 73 73 73 73 73 72 70 67 66 65 64 64 63 62 62 61 60 60 59 59 58 57 57 56 55 55 55 55 55 55 55 55 55 55 55 54 54 54 54 54 54 54 55 54 54 54 54 55 55 55 55 54 54 54 53
121 122 123 124 125 125 123 121 118 115 112 109 107 105 103 101 98 96 94 91 89 87 85 83 82 80 79 78 76 75 73 71 71 71 71 70 69 67 65 63 62 61 61 60 60 59 59 58 58 57 57 56 56 55 54 54 54 54 54 54 54 54 53 53 53 53 53 53 52 52 53 53 53 53 53 53 53 53 53 53 54 53 53 53 52 52
122 123 124 125 124 123 121 117 114 111 108 106 104 102 100 98 96 93 91 88 86 84 82 81 79 78 77 75 74 72 70 69 68 68 68 68 67 65 63 61 59 59 59 58 58 57 56 56 56 55 55 55 54 53 53 52 52 52 52 52 52 52 52 52 52 51 51 51 51 51 51 51 51 51 51 51 51 51 52 52 52 52 52 52 51 51
124 125 124 123 122 120 117 113 110 107 105 103 101 99 97 95 93 91 88 86 84 82 81 79 78 76 74 73 71 69 68 66 66 66 66 66 65 63 60 58 57 57 57 56 56 55 54 54 54 53 53 53 52 52 51 51 51 51 51 51 51 51 51 50 50 50 50 49 49 49 49 49 49 49 49 49 49 50 50 50 51 51 50 50 50 49
125 125 123 121 118 115 112 109 107 104 102 100 98 96 94 92 90 88 86 84 82 81 79 77 76 74 72 70 69 67 65 64 63 64 64 64 63 61 59 57 55 55 55 55 54 53 53 52 52 51 51 51 51 50 50 50 50 50 50 50 50 50 50 49 49 49 48 48 48 48 48 48 48 48 47 47 48 48 48 49 49 49 49 49 48 48
124 123 121 117 114 111 108 106 103 101 99 97 95 93 91 89 87 85 84 82 80 79 78 76 74 72 70 68 66 64 63 61 61 61 61 62 61 60 57 55 54 53 53 53 52 51 51 50 50 50 49 49 49 49 48 48 49 49 49 49 49 49 48 48 48 47 47 47 47 47 47 46 46 46 46 46 46 46 47 47 47 47 47 47 47 46
122 120 117 113 110 107 105 102 100 98 96 94 92 90 88 86 85 83 82 80 79 77 76 74 73 71 69 67 65 62 60 59 58 59 59 59 59 58 56 54 53 52 52 51 50 50 49 49 48 48 48 48 47 47 47 47 47 48 48 48 48 48 47 47 47 46 46 46 46 45 45 45 45 44 44 44 44 45 45 45 46 46 46 46 45 45
119 116 112 109 106 104 102 99 97 95 92 90 88 87 85 84 83 82 80 79 77 76 74 73 71 70 68 66 64 61 59 57 56 56 57 57 57 56 55 53 52 51 51 50 49 48 48 47 47 46 46 46 46 46 46 46 46 47 47 47 47 46 46 46 45 45 45 44 44 44 44 44 43 43 42 42 42 43 43 44 44 44 44 44 44 44
115 111 108 106 103 101 99 96 94 91 89 87 85 84 83 82 81 80 78 77 75 74 73 71 70 68 67 65 63 60 58 56 55 54 55 55 55 54 53 51 50 50 50 49 48 47 46 46 45 45 45 45 45 45 45 45 45 45 45 45 45 45 45 45 44 44 43 43 43 43 43 42 42 41 41 40 41 41 42 42 43 43 43 43 43 42
111 108 105 103 100 98 96 93 90 88 86 84 83 81 81 80 79 78 76 75 73 72 71 69 68 67 65 64 62 60 57 55 54 53 53 53 53 52 51 50 49 49 48 48 47 46 45 44 44 44 44 44 44 43 44 44 44 44 44 44 44 44 44 44 43 43 42 42 42 42 42 41 41 40 39 39 39 40 40 40 41 41 41 41 41 41
107 105 102 100 97 95 92 90 87 85 83 81 80 79 78 77 76 75 74 73 71 70 69 68 66 65 64 63 61 59 57 54 53 52 52 52 52 51 50 49 48 47 47 47 47 45 44 43 42 42 42 42 42 43 43 43 43 43 43 43 43 43 43 42 42 42 41 41 41 41 41 41 40 39 38 38 38 38 38 39 39 40 40 40 40 40
104 102 99 97 94 92 89 87 85 83 81 79 78 77 76 75 74 73 72 70 69 68 67 66 65 64 63 62 61 59 57 54 52 52 51 51 51 50 49 48 47 46 46 46 46 45 43 41 41 41 41 42 42 42 42 42 42 42 42 42 42 42 42 41 41 41 40 40 40 40 40 40 39 38 37 37 37 37 37 37 38 38 39 39 39 39
102 99 97 94 92 89 87 84 83 81 79 78 76 75 74 72 71 70 69 68 67 66 65 64 63 62 61 61 60 59 57 54 53 51 51 51 51 50 48 47 46 45 45 45 45 45 43 40 39 39 40 41 41 42 42 42 42 41 41 41 41 41 41 41 40 40 39 39 39 39 39 39 39 38 37 36 36 36 36 36 37 37 37 38 38 38
99 97 94 92 89 87 84 83 81 79 78 76 75 73 72 70 69 68 66 65 64 64 63 63 62 61 60 60 59 58 57 55 53 52 51 51 50 50 48 47 46 45 44 44 44 44 43 41 38 37 38 39 40 41 41 42 41 41 40 40 40 40 40 40 40 39 39 38 38 38 38 38 38 37 36 35 35 34 34 35 35 36 36 37 37 37
97 94 91 89 87 85 83 81 79 78 76 75 73 71 70 68 67 65 64 63 62 61 61 61 60 60 59 58 58 57 56 55 53 52 51 51 51 50 49 48 46 45 44 44 44 44 43 41 39 37 37 37 39 40 41 41 41 41 40 40 39 39 39 39 39 38 37 37 37 37 37 37 37 36 36 35 34 34 33 33 34 34 35 35 36 36
94 91 88 86 84 83 81 80 78 76 75 73 71 70 68 66 65 63 62 61 60 59 59 58 58 58 58 58 57 57 56 54 53 52 52 51 51 50 49 48 47 46 44 44 43 43 43 42 40 38 36 36 37 38 39 40 40 40 40 39 39 38 38 38 38 37 36 36 35 35 35 35 35 35 35 34 33 33 32 32 32 33 33 34 34 35
90 88 86 84 83 81 79 78 76 75 73 71 70 68 66 65 63 62 60 59 58 57 57 56 56 56 56 56 57 56 56 54 53 52 52 51 51 51 50 49 48 47 45 44 43 43 42 41 40 39 37 36 36 37 38 39 39 39 39 38 38 38 37 37 37 36 35 34 34 34 34 34 34 34 33 33 33 32 32 31 31 31 32 32 33 33
88 85 84 82 81 79 78 76 75 73 71 69 68 66 65 63 62 60 59 58 57 56 55 55 54 54 55 55 55 56 56 55 53 52 52 51 51 51 50 49 48 47 46 45 44 43 42 41 40 39 38 37 36 36 36 37 38 38 38 38 37 37 37 37 36 36 35 34 33 32 32 32 32 32 32 32 31 31 31 30 30 30 31 31 31 32
85 83 82 81 79 78 76 75 73 71 69 68 66 64 63 62 60 59 57 56 55 55 54 54 53 53 53 53 54 54 55 54 54 53 52 51 51 50 50 49 48 47 46 46 45 44 43 41 40 39 38 37 36 35 35 36 37 37 37 36 36 36 35 36 35 35 34 33 32 31 31 30 30 30 30 30 30 30 30 30 29 29 29 30 30 30
83 81 80 79 77 76 74 73 71 69 67 66 64 63 61 60 59 57 56 55 55 54 54 53 53 52 52 52 52 53 53 53 53 53 52 52 51 50 50 49 48 47 46 45 45 44 43 42 40 39 38 37 36 35 35 35 35 36 36 35 35 34 34 34 34 34 34 33 32 30 30 29 29 29 29 29 29 29 28 28 28 28 28 28 29 29
81 80 78 77 76 74 73 71 69 67 66 64 63 61 60 59 58 56 55 55 54 53 53 53 52 52 51 51 51 51 51 52 52 52 52 51 51 50 50 49 48 46 45 45 44 44 43 42 41 39 38 37 36 35 35 35 35 35 35 34 33 32 32 33 33 33 33 32 31 30 29 28 28 28 28 28 28 27 27 27 27 27 27 27 28 28
79 78 77 75 74 72 70 69 67 66 64 62 61 60 59 58 57 56 55 54 53 53 53 52 52 51 50 50 49 49 50 50 50 51 51 51 50 50 49 49 48 46 45 44 43 43 42 41 41 39 38 37 35 34 34 34 34 34 34 33 32 31 30 31 31 31 31 31 30 29 28 28 27 27 27 27 26 26 26 26 26 26 26 26 26 26
78 76 75 73 72 70 68 67 65 64 62 61 60 59 58 57 56 55 55 54 53 53 52 52 51 50 50 49 48 48 48 48 49 49 49 49 49 49 48 48 47 46 44 43 42 41 41 41 40 39 38 37 35 34 33 33 33 33 33 32 31 29 29 29 29 29 30 29 29 28 28 27 26 26 26 26 26 25 25 25 25 25 25 25 25 25
76 75 73 71 70 68 66 65 63 62 61 59 58 57 57 56 56 55 55 54 53 52 52 51 51 50 49 48 47 47 46 46 47 47 47 48 48 48 47 47 46 45 44 42 41 40 40 39 39 38 37 36 35 34 32 32 32 32 31 31 30 29 28 27 27 28 28 27 27 27 27 26 26 25 25 25 25 25 24 24 24 24 24 24 25 25
75 73 71 70 68 66 65 63 62 60 59 58 57 56 56 56 56 55 55 54 53 52 52 51 50 49 48 47 46 45 44 44 44 45 45 46 46 46 46 45 44 43 42 41 40 39 38 38 37 37 36 35 34 33 32 31 30 30 30 30 29 28 27 26 26 26 26 26 26 26 25 25 25 25 24 24 24 24 24 24 24 24 24 24 24 24
73 71 69 68 66 65 63 62 60 59 58 57 56 55 55 55 55 55 54 54 53 52 52 51 50 49 48 47 46 45 43 42 42 42 43 43 44 44 44 43 42 41 40 40 39 38 36 36 35 35 35 34 33 32 31 30 29 29 28 28 28 27 26 25 24 24 24 24 24 24 24 24 24 24 24 23 23 23 23 23 23 23 23 23 24 24
71 69 68 66 65 63 62 60 59 58 57 56 55 55 55 54 54 54 54 53 53 52 51 50 50 49 48 47 46 44 43 41 40 40 40 41 41 42 42 41 40 39 39 38 37 36 35 34 34 33 33 32 32 31 30 29 28 27 27 27 27 26 26 24 23 23 22 22 23 23 23 23 23 23 23 23 22 22 22 22 22 22 23 23 23 24
69 67 66 65 63 62 60 59 58 57 56 55 55 55 54 54 54 53 53 52 51 51 50 49 48 48 47 46 45 44 42 41 39 38 38 38 39 39 39 39 38 37 37 36 35 34 33 33 32 32 31 31 30 30 29 28 27 26 26 25 25 25 24 23 23 22 21 21 21 22 22 22 22 22 22 22 22 22 22 22 22 22 22 22 23 23
67 66 64 63 62 60 59 58 57 56 56 55 55 54 54 53 53 52 51 51 50 49 48 48 47 47 46 45 44 43 42 40 38 37 36 36 36 36 37 37 36 35 34 33 33 32 32 31 31 30 30 29 28 28 27 26 26 25 24 24 24 23 23 22 21 21 20 20 20 21 21 21 21 21 21 21 21 21 21 21 21 21 22 22 22 22
65 64 63 62 61 59 58 58 57 56 56 55 54 54 53 52 51 51 50 49 48 48 47 46 46 45 45 44 43 42 41 39 38 36 35 34 34 34 34 34 34 33 32 31 31 30 30 29 29 28 28 27 27 26 25 25 24 24 23 22 22 21 21 21 20 20 20 20 20 20 20 20 19 19 19 20 20 20 20 20 21 21 21 21 21 21
63 62 61 60 60 59 58 57 57 56 56 55 54 53 52 51 50 49 48 47 47 46 45 45 44 44 43 42 42 41 40 38 37 36 34 33 32 32 32 31 31 31 30 29 29 28 28 28 27 26 26 25 25 24 24 24 23 22 22 21 20 20 19 19 19 19 19 19 19 19 19 18 18 18 18 18 19 19 19 20 20 20 20 20 21 20
61 61 60 60 59 59 58 57 57 56 56 55 54 52 51 50 48 47 46 46 45 44 44 43 43 42 42 41 40 39 38 37 36 35 33 32 31 30 29 29 29 28 28 27 27 27 26 26 25 25 24 23 23 22 22 22 22 21 20 19 19 18 18 18 17 18 18 18 18 18 18 18 18 18 18 18 18 18 19 19 19 20 20 19 19 19
60 60 59 59 59 58 58 58 57 56 56 55 53 52 50 48 47 46 45 44 43 43 42 42 41 41 41 40 39 38 37 36 34 33 32 31 30 28 28 27 26 26 26 26 25 25 25 24 23 23 22 21 21 21 21 21 20 19 19 18 17 17 16 16 16 17 17 17 17 17 17 17 17 17 17 17 18 18 18 18 18 18 18 18 18 18
59 59 59 59 59 59 58 58 57 56 55 54 53 51 49 47 46 44 43 42 42 41 41 40 40 39 39 39 38 37 36 34 33 32 30 29 28 27 26 25 25 24 24 24 24 23 23 22 21 21 20 20 20 20 20 19 18 18 17 16 16 15 15 15 16 16 16 16 16 16 16 16 16 16 17 17 17 17 17 17 17 17 17 17 17 17
Wind_Direction
297 297 297 297 297 297 297 297 297 297 298 298 298 298 298 298 298 298 298 298 298 298 298 298 298 298 297 297 296 296 295 295 295 294 294 294 293 293 292 292 291 290 290 289 289 288 288 287 287 287 286 285 285 284 284 283 283 282 282 281 281 280 280 279 279 278 278 278 277 277 276 275 274 273 272 271 270 269 269 268 267 266 265 264 263 262
298 298 298 298 298 298 298 298 298 298 298 298 298 299 299 299 299 299 299 299 299 299 299 299 298 298 297 297 297 296 296 295 295 295 294 294 294 293 292 292 291 290 290 289 289 288 288 288 287 287 286 286 285 285 284 283 283 282 282 281 281 280 280 279 279 279 278 278 277 277 276 275 274 273 272 271 270 270 269 268 267 266 265 264 263 262
299 299 299 299 299 299 299 299 299 299 299 299 299 299 300 300 300 300 300 300 300 300 300 299 299 298 298 297 297 296 296 296 295 295 295 294 294 293 292 292 291 290 290 290 289 289 288 288 287 287 286 286 285 284 284 283 283 282 282 281 281 280 280 279 279 279 278 278 277 277 276 275 274 273 272 271 271 270 269 268 267 266 266 265 264 263
299 299 299 299 300 299 299 299 299 299 300 300 300 300 301 301 301 301 301 301 301 300 300 299 299 298 298 297 297 297 296 296 296 295 295 294 294 293 292 292 291 290 290 290 289 289 289 288 288 287 286 286 285 285 284 283 283 282 282 281 281 280 280 280 279 279 278 278 277 276 275 275 274 273 272 272 271 270 269 268 267 267 266 265 264 263
300 300 300 300 300 300 300 300 300 300 300 301 301 301 302 302 302 302 302 301 301 300 300 299 299 298 298 298 297 297 297 296 296 296 295 294 294 293 292 292 291 291 290 290 290 289 289 288 288 287 286 286 285 284 284 283 283 282 282 281 281 281 280 280 279 279 278 277 277 276 275 274 274 273 273 272 271 271 270 269 268 267 266 265 264 263
300 300 301 301 300 300 300 300 301 301 301 302 302 302 303 303 303 302 302 302 301 300 300 299 299 298 298 298 297 297 297 297 296 296 295 294 293 293 292 292 291 291 291 290 290 289 289 288 288 287 286 286 285 284 284 283 283 282 282 281 281 281 280 280 279 279 278 277 276 276 275 274 274 273 273 272 271 271 270 269 268 267 266 265 264 262
301 301 301 301 301 301 301 301 301 302 302 303 303 303 303 303 303 302 302 301 301 300 300 299 299 299 298 298 298 297 297 297 296 296 295 294 293 293 292 292 292 291 291 290 290 289 289 288 288 287 286 286 285 284 284 283 283 282 282 281 281 281 280 280 279 279 278 277 276 275 275 274 274 273 272 272 271 270 270 269 268 267 266 265 264 262
302 302 301 301 301 301 302 302 302 303 303 304 304 304 304 303 303 302 302 301 301 300 300 299 299 299 298 298 298 298 297 297 296 296 295 294 293 293 292 292 292 291 291 291 290 289 289 288 288 287 286 286 285 285 284 283 283 282 282 282 281 281 280 280 279 278 278 277 276 276 275 274 274 273 272 271 271 270 269 269 268 267 266 265 264 263
302 302 302 302 302 302 302 303 303 304 304 304 304 304 304 303 303 302 302 301 301 300 300 300 299 299 299 298 298 298 297 297 296 296 295 294 294 293 293 292 292 292 291 291 290 289 289 288 287 287 286 286 285 285 284 283 283 282 282 282 281 281 280 280 279 278 278 277 276 276 275 274 274 273 272 271 270 270 269 268 267 267 266 265 264 263
302 302 302 302 302 303 303 304 304 305 305 305 304 304 304 303 303 302 302 301 301 300 300 300 300 299 299 298 298 298 298 297 296 296 295 294 294 293 293 293 292 292 291 291 290 289 289 288 287 287 286 286 285 284 284 283 283 282 282 282 281 281 280 280 279 278 278 277 277 276 275 275 274 273 272 271 270 269 269 268 267 266 266 265 264 263
302 303 303 303 303 304 304 304 305 305 305 305 305 304 304 303 303 302 302 302 301 301 300 300 300 299 299 299 299 298 298 297 296 296 295 294 294 293 293 293 292 292 291 291 290 289 289 288 287 287 286 286 285 284 284 283 283 283 282 282 281 281 280 280 279 278 278 277 277 276 276 275 274 273 272 272 271 270 269 268 267 266 265 264 264 263
303 303 303 304 304 305 305 305 305 305 305 305 305 305 304 303 303 303 302 302 302 301 301 301 300 300 299 299 299 299 298 297 296 296 295 294 294 294 293 293 292 292 291 291 290 289 289 288 287 287 286 286 285 284 284 283 283 283 282 282 281 281 280 280 279 279 278 278 277 277 276 275 274 274 273 272 271 270 269 268 267 266 265 264 263 262
303 304 304 305 305 306 306 306 306 306 306 306 305 305 304 304 303 303 303 302 302 301 301 301 300 300 299 299 299 299 298 297 296 296 295 294 294 294 293 293 292 292 291 291 290 289 289 288 287 287 286 286 285 285 284 284 283 283 282 282 281 281 280 280 279 279 278 278 278 277 276 276 275 274 273 272 271 271 269 268 267 266 265 264 263 262
304 305 305 306 306 307 307 307 307 307 306 306 306 305 305 304 303 303 303 302 302 302 301 301 301 300 300 299 299 299 298 297 296 296 295 294 294 294 293 293 293 292 292 291 290 290 289 288 288 287 287 286 285 285 284 284 284 283 282 282 281 281 280 280 280 279 279 278 278 277 277 276 276 275 274 273 272 271 270 269 268 267 265 264 263 262
305 306 306 307 307 308 308 308 307 307 307 306 306 305 305 304 304 303 303 303 303 302 302 301 301 300 300 299 299 299 298 297 297 296 295 295 294 294 294 293 293 292 292 291 291 290 289 289 288 287 287 286 285 285 285 284 284 283 282 282 281 281 280 280 280 279 279 279 278 278 277 277 276 275 275 274 273 272 271 270 269 267 266 265 263 262
306 307 307 308 308 308 308 308 308 308 307 307 306 305 305 305 304 304 304 303 303 303 302 302 301 300 300 299 299 299 298 298 297 296 296 295 295 294 294 294 293 293 292 291 291 290 289 289 288 288 287 286 286 285 285 284 284 283 282 282 281 281 280 280 280 279 279 279 278 278 277 277 276 276 275 274 274 273 272 271 269 268 267 265 264 262
308 308 308 309 309 309 309 308 308 308 307 307 306 306 305 305 304 304 304 304 303 303 302 302 301 301 300 300 300 299 299 298 297 297 296 295 295 295 294 294 294 293 292 292 291 290 290 289 289 288 288 287 286 286 285 285 284 283 282 282 281 281 280 280 279 279 279 278 278 278 277 277 276 276 275 275 274 273 272 271 270 269 267 266 265 263
309 309 309 309 309 309 309 309 308 308 307 307 306 306 306 305 305 305 304 304 303 303 302 302 301 301 301 300 300 300 300 299 298 297 296 296 295 295 295 295 294 294 293 292 291 291 290 290 289 289 288 287 287 286 286 285 284 283 283 282 281 281 280 280 279 279 279 278 278 277 277 277 276 276 275 274 274 273 272 271 270 269 268 267 265 264
309 310 310 310 310 310 309 309 308 308 307 307 307 306 306 305 305 305 304 304 304 303 303 302 302 301 301 301 301 301 300 300 299 298 297 296 296 296 296 295 295 294 293 292 292 291 291 290 290 289 289 288 288 287 286 286 285 284 283 282 282 281 281 280 280 279 279 278 278 278 277 276 276 275 275 274 273 273 272 271 270 269 268 267 266 264
310 310 310 310 310 310 309 309 308 308 308 307 307 306 306 306 305 305 305 304 304 304 303 303 302 302 302 302 301 301 301 300 300 299 297 297 296 296 296 296 295 294 294 293 292 292 291 291 290 290 289 289 288 288 287 286 285 284 284 283 282 282 281 281 280 280 280 279 278 278 277 276 276 275 274 274 273 272 272 271 270 269 269 268 266 265
310 310 310 310 310 310 309 309 308 308 308 307 307 307 306 306 305 305 305 305 304 304 304 303 303 303 302 302 302 302 302 301 300 299 298 297 297 297 297 297 296 295 294 293 293 292 292 291 291 290 290 289 289 288 288 287 286 285 284 284 283 283 282 282 281 281 280 280 279 278 278 277 276 275 275 274 273 272 272 271 270 269 269 268 267 266
311 311 310 310 310 310 309 309 308 308 308 308 307 307 306 306 306 306 305 305 305 305 304 304 304 303 303 303 303 303 302 302 301 300 299 298 298 297 297 297 296 295 295 294 293 293 292 292 291 291 290 290 289 289 288 287 287 286 285 285 284 284 283 283 283 282 281 281 280 279 278 277 277 276 275 274 273 273 272 271 270 269 269 268 267 266
311 311 311 310 310 309 309 309 308 308 308 308 307 307 307 306 306 306 306 306 306 306 305 305 304 304 304 303 303 303 303 302 301 300 300 299 298 298 298 298 297 296 295 294 294 293 293 292 292 291 291 290 290 289 289 288 287 287 286 286 285 285 285 284 284 283 282 282 281 280 279 278 277 276 276 275 274 273 272 271 270 270 269 268 267 266
311 311 311 310 310 309 309 309 309 308 308 308 308 307 307 307 307 307 306 306 306 306 306 305 305 305 304 304 304 304 303 303 302 301 300 299 299 299 299 298 298 297 296 295 294 294 293 293 292 291 291 290 290 289 289 288 288 287 287 287 286 286 286 285 284 284 283 282 282 281 280 279 278 277 276 275 274 273 272 271 271 270 269 268 267 266
311 311 310 310 310 309 309 309 309 308 308 308 308 308 307 307 307 307 307 307 307 307 306 306 306 305 305 305 304 304 304 303 302 301 300 299 299 299 299 299 298 297 296 295 294 294 293 293 292 292 291 291 290 290 289 289 288 288 288 287 287 287 286 286 285 285 284 283 283 282 281 280 279 278 277 276 274 273 272 271 271 270 269 269 268 267
311 311 310 310 310 309 309 309 309 309 308 308 308 308 308 308 308 308 308 308 307 307 307 307 306 306 305 305 305 304 304 303 302 301 300 299 299 299 299 299 298 297 296 295 295 294 294 293 293 292 292 291 290 290 289 289 289 288 288 288 288 287 287 287 286 286 285 284 283 283 282 281 280 278 277 276 275 273 272 271 271 270 269 269 268 267
311 311 310 310 310 309 309 309 309 309 309 308 308 308 308 308 308 308 308 308 308 307 307 307 307 306 306 305 305 304 304 303 302 301 300 299 299 299 299 298 298 297 296 295 295 294 294 293 293 292 292 291 291 290 289 289 289 289 288 288 288 288 288 287 287 286 286 285 284 284 283 282 280 279 278 276 275 274 273 272 271 270 270 269 268 267
311 311 310 310 310 309 309 309 309 309 309 309 309 309 309 309 309 308 308 308 308 308 307 307 307 306 306 305 305 305 304 304 303 302 300 299 299 298 298 298 297 297 296 295 294 294 294 293 293 292 292 291 290 290 289 289 289 289 289 289 289 289 288 288 288 287 287 286 285 284 284 282 281 280 278 277 275 274 273 272 271 270 270 269 268 267
311 311 310 310 310 310 309 309 309 309 309 309 309 309 309 309 309 309 308 308 308 308 307 307 307 306 306 306 305 305 304 304 303 302 301 300 299 298 298 297 297 296 295 295 294 294 293 293 293 292 291 291 290 290 289 289 289 289 289 289 289 289 289 289 288 288 287 287 286 285 284 283 282 281 279 277 276 274 273 272 271 270 270 269 268 267
311 311 310 310 310 310 310 310 310 310 310 310 310 310 310 309 309 309 308 308 308 308 308 307 307 306 306 306 305 305 304 304 303 302 301 300 299 298 298 297 297 296 295 295 294 294 293 293 292 291 291 291 290 290 290 290 290 290 290 290 290 290 290 289 289 288 288 287 286 285 284 283 282 281 279 278 276 274 273 272 271 271 270 269 268 267
311 311 311 310 310 310 310 310 311 311 311 311 310 310 310 310 309 309 309 308 308 308 308 307 307 306 306 305 305 305 304 304 304 302 301 300 299 299 298 297 297 296 295 294 294 294 293 293 292 291 290 290 290 290 290 290 290 291 290 290 290 290 290 289 289 289 288 287 286 285 284 283 282 281 280 278 277 275 273 272 271 271 270 269 268 267
311 311 311 311 311 311 311 311 311 311 311 311 311 311 310 310 309 309 309 308 308 308 307 307 307 306 306 305 305 304 304 304 304 303 302 300 300 299 298 298 297 296 295 294 294 294 293 293 292 291 290 289 289 290 290 291 291 291 291 290 290 290 290 289 289 288 288 287 286 285 284 283 282 281 280 279 277 276 274 273 272 271 270 269 268 267
311 311 311 311 311 311 312 312 312 312 312 312 311 311 311 310 310 309 309 309 308 308 307 307 307 306 306 305 305 304 304 304 303 302 301 300 299 299 299 298 297 297 296 295 294 293 293 293 293 292 290 289 289 289 290 290 290 291 291 291 290 290 290 290 289 289 288 287 286 285 283 282 281 281 280 279 278 276 275 273 272 271 270 269 268 267
311 311 311 312 312 312 312 312 312 312 312 312 312 311 311 310 310 310 309 309 308 308 307 307 306 306 305 305 304 304 303 303 303 302 301 300 299 299 298 298 298 297 296 295 294 294 293 293 293 293 291 290 289 289 289 290 290 290 290 291 291 291 291 290 290 289 288 287 286 284 283 282 281 280 280 279 278 277 276 274 273 272 270 269 268 267
311 312 312 312 312 313 313 313 313 312 312 312 312 311 311 311 310 310 310 309 309 308 307 307 306 305 305 304 304 303 303 303 302 301 300 299 299 298 298 297 297 297 296 296 295 295 294 293 293 293 292 291 290 290 290 290 290 290 290 291 291 291 291 291 291 290 289 288 286 284 283 281 281 280 279 279 278 277 277 275 274 273 271 270 268 267
312 312 313 313 313 313 313 313 313 313 312 312 312 312 311 311 311 310 310 310 309 308 308 307 306 305 304 304 303 302 302 302 301 301 300 299 298 298 297 297 297 297 296 296 295 295 295 294 294 293 293 292 292 291 290 290 290 290 290 290 291 292 292 292 292 291 290 289 287 286 284 282 281 280 279 279 278 278 277 276 275 274 272 271 269 267
313 313 313 313 313 313 313 313 313 313 313 312 312 312 312 311 311 311 310 310 309 309 308 307 306 305 304 303 302 302 301 301 300 300 300 299 298 298 297 297 297 296 296 295 295 295 295 295 294 294 294 293 293 292 291 290 289 289 289 290 291 291 292 292 292 291 291 290 289 287 285 284 282 281 280 279 278 278 277 276 275 274 273 271 269 268
313 314 314 314 314 314 313 313 313 313 313 313 312 312 312 312 311 311 311 310 309 309 308 307 306 305 304 303 302 301 300 300 299 299 299 298 298 297 297 297 296 296 296 295 295 295 295 295 295 294 294 294 293 293 292 291 290 289 289 290 290 291 292 292 292 292 291 290 289 288 286 285 283 282 281 280 279 278 277 277 276 275 273 272 270 268
314 314 314 314 314 314 313 313 313 313 313 313 313 313 312 312 312 311 311 310 309 309 308 306 305 304 303 302 301 300 299 299 298 298 298 297 297 297 296 296 296 296 296 295 295 294 294 294 295 295 294 294 294 293 292 291 290 290 290 290 290 291 292 292 292 291 291 290 289 288 287 286 285 283 282 282 281 280 279 277 276 275 274 272 271 269
314 314 314 314 314 314 314 313 313 313 313 313 313 313 313 313 312 312 311 310 309 308 307 306 305 304 303 302 301 300 299 298 298 297 297 296 296 296 296 296 296 296 296 296 295 294 294 294 294 295 295 294 294 293 292 291 290 290 290 290 291 291 291 291 291 291 290 289 289 288 287 286 285 285 284 283 282 281 281 280 278 277 276 274 273 271
315 315 314 314 314 314 314 314 314 314 314 314 314 314 313 313 312 312 311 310 309 308 307 306 305 304 303 302 301 300 299 298 297 296 296 296 295 295 295 295 295 296 296 296 295 295 294 294 294 294 294 294 294 293 292 291 290 290 290 291 292 292 292 291 291 290 289 289 288 288 287 287 286 285 285 284 284 283 283 282 281 280 279 277 276 275
315 315 314 314 314 314 314 314 314 314 314 314 314 314 314 313 313 312 311 310 310 308 307 306 305 304 303 302 301 300 299 298 297 296 295 295 295 295 295 295 295 295 295 295 295 295 294 294 294 294 294 294 293 293 292 291 291 291 291 292 292 293 292 292 291 290 289 288 288 288 287 287 287 286 286 286 286 285 285 284 284 283 282 281 279 278
315 315 315 314 314 314 314 314 314 315 314 314 314 314 314 313 313 312 311 310 310 309 308 306 305 304 303 302 301 300 299 298 297 296 295 295 294 294 294 295 295 295 295 295 295 295 294 294 293 293 293 293 292 292 292 291 291 291 292 292 293 293 293 292 291 289 288 288 288 288 288 288 288 288 288 288 288 287 287 287 286 285 284 283 282 280
315 315 315 314 314 315 315 315 315 315 315 315 315 315 314 314 313 312 311 310 310 309 308 306 305 304 303 302 302 301 300 299 298 297 296 295 294 294 294 295 295 295 295 295 294 294 294 293 292 292 292 291 292 291 292 292 291 292 292 293 294 294 294 293 291 289 288 287 287 288 288 288 288 289 289 290 290 290 289 289 288 287 286 284 283 281
315 315 315 315 315 315 315 315 315 315 315 315 315 315 315 314 314 313 312 310 309 308 307 306 305 304 304 303 302 302 301 301 300 298 297 296 295 295 295 295 295 295 295 294 294 293 292 292 291 291 291 290 291 291 291 291 292 292 292 293 294 294 294 293 291 290 289 288 287 287 288 288 289 290 291 292 292 292 291 290 290 288 287 285 284 282
315 315 315 315 315 315 315 315 315 316 316 316 316 316 316 315 314 313 312 310 309 308 307 306 305 304 304 303 303 303 302 302 301 300 299 297 296 295 295 295 295 295 294 294 293 292 291 291 290 290 290 290 290 291 291 292 292 292 292 293 293 293 293 292 291 291 290 289 289 288 288 289 290 291 292 293 293 293 292 292 291 290 288 286 284 283
315 315 315 315 315 315 315 315 316 316 316 317 317 317 316 315 314 313 312 311 309 308 307 306 306 305 304 304 303 303 303 303 302 302 300 299 297 296 296 295 295 295 294 293 292 291 291 290 290 290 290 290 290 291 291 291 291 292 293 293 293 293 292 291 291 291 291 290 290 290 290 291 292 293 294 294 295 294 294 293 292 291 289 287 285 283
315 315 315 315 315 315 315 316 316 317 317 317 317 317 317 316 315 314 312 311 310 309 308 307 306 305 304 304 304 304 304 303 303 303 302 301 299 298 297 296 295 294 293 292 291 290 290 289 289 289 290 290 291 291 291 291 291 292 294 294 293 292 291 290 291 291 291 291 291 292 292 294 295 295 296 296 296 296 296 295 293 291 290 288 286 284
315 315 315 315 315 315 316 316 317 317 318 318 318 318 318 317 316 314 313 312 310 309 308 307 306 305 305 305 304 304 304 304 304 303 303 302 301 299 298 296 295 293 292 291 290 289 289 289 289 290 290 291 290 290 290 290 292 293 294 294 292 291 290 290 291 291 291 291 292 294 295 297 297 298 298 299 299 298 297 295 293 291 290 288 287 285
315 315 315 315 315 316 316 317 318 318 319 319 319 319 319 318 316 315 314 312 311 310 309 308 307 306 305 305 305 305 305 305 304 304 303 303 302 300 298 296 294 293 292 290 289 289 289 289 290 291 291 291 290 290 290 291 292 293 293 293 292 290 290 290 290 290 291 292 294 296 298 299 300 301 301 301 301 299 297 295 293 291 290 289 288 287
316 316 316 316 316 316 317 318 319 319 320 320 320 320 319 318 317 316 314 313 311 310 309 308 308 307 306 306 305 305 305 305 305 305 304 303 302 300 298 296 294 292 291 289 289 289 289 290 291 291 291 291 290 289 290 291 292 293 293 292 291 290 290 290 290 291 292 294 297 298 300 302 303 304 304 303 302 300 297 295 293 291 291 291 290 289
Height
10414 10409 10405 10401 10398 10392 10386 10381 10378 10374 10369 10363 10358 10356 10353 10349 10344 10339 10336 10333 10328 10324 10319 10315 10311 10306 10302 10298 10294 10289 10284 10280 10276 10273 10270 10267 10263 10259 10254 10250 10246 10242 10238 10235 10232 10229 10227 10225 10223 10220 10218 10215 10212 10209 10207 10204 10202 10199 10198 10196 10194 10193 10191 10191 10191 10190 10191 10191 10191 10191 10191 10191 10191 10191 10191 10191 10191 10191 10191 10192 10193 10194 10195 10196 10198 10199
10404 10399 10394 10391 10388 10383 10376 10370 10366 10363 10359 10354 10349 10344 10341 10338 10334 10329 10324 10321 10317 10313 10308 10303 10299 10294 10289 10284 10281 10276 10272 10268 10264 10260 10257 10254 10250 10246 10241 10237 10233 10229 10226 10223 10220 10218 10216 10213 10211 10209 10206 10204 10201 10199 10196 10194 10191 10189 10187 10185 10184 10183 10181 10181 10181 10181 10181 10181 10181 10181 10181 10181 10180 10179 10179 10179 10179 10180 10181 10181 10182 10183 10184 10186 10187 10188
10394 10389 10384 10379 10376 10373 10367 10361 10355 10351 10347 10344 10339 10335 10331 10328 10323 10318 10314 10310 10306 10301 10296 10291 10286 10282 10277 10272 10268 10264 10259 10255 10251 10248 10244 10241 10237 10233 10228 10224 10220 10217 10214 10211 10209 10207 10204 10203 10200 10198 10195 10193 10190 10188 10186 10183 10181 10179 10177 10175 10174 10173 10172 10172 10172 10172 10172 10172 10172 10171 10171 10170 10169 10169 10169 10169 10169 10170 10171 10172 10173 10173 10174 10175 10176 10178
10386 10381 10375 10369 10365 10361 10356 10351 10346 10341 10337 10333 10329 10326 10322 10317 10312 10307 10303 10299 10294 10289 10284 10278 10273 10269 10264 10260 10256 10251 10248 10243 10239 10236 10233 10229 10224 10220 10216 10212 10208 10206 10203 10201 10199 10196 10194 10192 10189 10187 10185 10183 10180 10178 10175 10173 10171 10169 10167 10166 10164 10163 10163 10163 10163 10163 10163 10163 10162 10161 10161 10160 10159 10159 10159 10159 10160 10161 10161 10162 10163 10163 10164 10165 10166 10167
10376 10372 10366 10361 10355 10350 10346 10341 10337 10332 10328 10323 10319 10316 10313 10308 10302 10296 10292 10288 10283 10278 10273 10267 10262 10257 10253 10248 10243 10239 10236 10232 10228 10224 10221 10216 10213 10208 10204 10200 10198 10195 10193 10191 10189 10186 10184 10182 10179 10177 10174 10173 10170 10168 10166 10164 10161 10159 10158 10156 10155 10154 10154 10154 10154 10154 10154 10153 10153 10152 10151 10151 10151 10150 10150 10151 10151 10151 10151 10152 10153 10154 10154 10155 10156 10157
10366 10362 10358 10353 10346 10341 10335 10331 10327 10323 10318 10313 10309 10306 10303 10299 10293 10288 10282 10276 10271 10265 10260 10255 10250 10246 10241 10236 10231 10228 10224 10221 10217 10213 10209 10205 10201 10196 10193 10190 10188 10186 10184 10181 10179 10177 10174 10172 10170 10168 10165 10163 10161 10158 10156 10154 10153 10151 10149 10148 10147 10146 10146 10146 10145 10144 10144 10143 10143 10143 10142 10142 10142 10142 10142 10142 10142 10142 10142 10143 10143 10144 10144 10146 10147 10148
10356 10351 10346 10343 10338 10332 10326 10321 10318 10314 10311 10305 10299 10294 10291 10288 10283 10278 10272 10266 10260 10253 10248 10243 10238 10234 10229 10225 10221 10217 10213 10210 10206 10203 10198 10194 10189 10186 10183 10180 10178 10176 10174 10172 10169 10168 10165 10163 10160 10158 10156 10153 10151 10149 10148 10146 10144 10142 10140 10139 10138 10138 10138 10137 10136 10136 10134 10134 10134 10133 10133 10133 10133 10133 10133 10133 10133 10133 10133 10133 10134 10134 10135 10136 10137 10138
10346 10341 10336 10331 10328 10323 10318 10311 10307 10304 10302 10298 10292 10286 10280 10276 10271 10265 10259 10255 10249 10243 10237 10232 10226 10221 10218 10214 10210 10207 10203 10199 10196 10191 10187 10183 10179 10176 10173 10171 10169 10167 10165 10163 10161 10158 10156 10154 10151 10149 10146 10144 10143 10141 10139 10137 10135 10133 10132 10131 10131 10130 10129 10128 10128 10126 10126 10125 10124 10124 10124 10124 10125 10125 10125 10125 10125 10125 10124 10124 10125 10125 10126 10126 10128 10129
10337 10333 10327 10321 10317 10313 10309 10303 10298 10293 10291 10288 10283 10278 10272 10267 10261 10254 10247 10241 10236 10232 10227 10221 10216 10211 10206 10203 10200 10197 10194 10189 10186 10181 10177 10173 10169 10166 10164 10162 10160 10158 10156 10154 10152 10149 10148 10145 10143 10140 10138 10136 10134 10133 10131 10129 10127 10126 10124 10124 10123 10122 10121 10119 10119 10118 10117 10116 10116 10116 10116 10116 10116 10116 10116 10116 10116 10116 10116 10116 10116 10117 10117 10118 10119 10120
10328 10323 10318 10313 10309 10304 10301 10296 10291 10285 10281 10277 10272 10266 10261 10257 10251 10245 10238 10230 10224 10219 10216 10211 10206 10201 10197 10193 10189 10187 10184 10180 10176 10171 10167 10163 10160 10158 10155 10153 10151 10149 10147 10145 10143 10141 10139 10136 10134 10132 10130 10128 10126 10124 10123 10121 10119 10118 10117 10116 10115 10114 10113 10111 10110 10109 10109 10108 10108 10108 10108 10108 10108 10108 10108 10108 10108 10108 10108 10109 10109 10109 10109 10109 10110 10111
10318 10314 10309 10304 10300 10295 10291 10287 10283 10278 10273 10268 10262 10256 10249 10244 10239 10234 10228 10221 10214 10209 10204 10200 10196 10191 10188 10184 10181 10178 10174 10170 10166 10161 10158 10154 10152 10149 10147 10144 10143 10141 10139 10137 10135 10133 10131 10128 10126 10124 10122 10120 10118 10116 10114 10113 10111 10110 10109 10108 10107 10106 10104 10103 10102 10101 10101 10101 10100 10100 10100 10100 10100 10100 10100 10100 10100 10100 10101 10101 10101 10101 10101 10102 10103 10103
10309 10305 10301 10297 10291 10286 10282 10277 10272 10267 10262 10257 10251 10245 10238 10231 10226 10221 10217 10211 10205 10199 10195 10190 10185 10181 10178 10176 10173 10169 10165 10161 10156 10151 10148 10146 10144 10141 10139 10136 10134 10133 10131 10129 10126 10124 10122 10120 10118 10116 10114 10113 10111 10109 10107 10106 10104 10103 10102 10101 10099 10098 10096 10096 10095 10094 10094 10093 10093 10093 10093 10093 10093 10093 10093 10093 10093 10093 10093 10093 10093 10094 10094 10094 10095 10096
10301 10297 10293 10288 10283 10278 10273 10268 10263 10256 10251 10245 10240 10234 10226 10219 10214 10209 10205 10200 10195 10191 10186 10181 10176 10171 10168 10166 10164 10161 10158 10152 10147 10143 10139 10137 10136 10134 10131 10129 10126 10124 10123 10121 10118 10116 10114 10112 10110 10108 10106 10104 10103 10101 10099 10098 10098 10096 10095 10093 10092 10091 10089 10088 10088 10087 10086 10086 10086 10085 10085 10085 10085 10084 10085 10085 10085 10085 10085 10085 10086 10086 10086 10087 10088 10088
10293 10288 10283 10278 10273 10268 10263 10258 10253 10246 10239 10233 10228 10222 10216 10209 10203 10199 10195 10190 10186 10181 10178 10173 10168 10163 10159 10158 10156 10154 10150 10144 10138 10134 10131 10129 10128 10126 10124 10121 10118 10116 10114 10113 10110 10108 10106 10104 10103 10101 10099 10098 10096 10094 10093 10092 10091 10089 10088 10086 10085 10084 10083 10082 10081 10080 10079 10079 10079 10078 10078 10078 10078 10078 10078 10078 10078 10078 10078 10078 10078 10078 10079 10079 10080 10081
10284 10279 10274 10268 10263 10257 10252 10247 10241 10235 10228 10222 10216 10210 10204 10198 10193 10189 10185 10181 10176 10172 10168 10164 10159 10154 10151 10149 10148 10146 10143 10137 10131 10126 10123 10120 10119 10118 10117 10114 10111 10108 10107 10105 10103 10100 10098 10097 10095 10093 10092 10090 10089 10088 10086 10086 10084 10083 10081 10080 10079 10078 10076 10076 10074 10074 10073 10073 10072 10072 10071 10071 10071 10070 10070 10070 10070 10070 10071 10071 10071 10071 10071 10072 10073 10073
10274 10270 10265 10259 10253 10247 10241 10236 10229 10224 10217 10211 10205 10199 10193 10188 10183 10179 10175 10171 10168 10163 10159 10155 10150 10146 10141 10139 10139 10138 10136 10130 10124 10119 10115 10113 10111 10111 10110 10108 10104 10101 10099 10098 10096 10093 10091 10089 10088 10086 10085 10083 10082 10081 10080 10079 10078 10076 10075 10074 10073 10071 10071 10069 10069 10068 10068 10067 10066 10066 10065 10064 10064 10064 10064 10063 10063 10063 10063 10063 10063 10064 10064 10065 10066 10066
10266 10261 10256 10249 10243 10236 10230 10224 10218 10213 10206 10200 10194 10189 10183 10178 10174 10170 10166 10163 10159 10155 10151 10147 10143 10138 10134 10131 10129 10129 10128 10123 10118 10112 10108 10104 10103 10103 10103 10101 10098 10094 10092 10091 10089 10086 10084 10083 10081 10079 10078 10077 10076 10074 10074 10073 10072 10070 10069 10068 10066 10066 10064 10064 10063 10062 10061 10061 10061 10060 10059 10059 10058 10058 10058 10057 10057 10057 10057 10056 10056 10057 10057 10058 10058 10059
10256 10251 10246 10240 10233 10226 10219 10213 10208 10202 10196 10190 10184 10179 10173 10168 10164 10161 10157 10154 10151 10147 10143 10139 10135 10131 10128 10124 10121 10120 10119 10116 10111 10106 10101 10098 10096 10095 10096 10094 10091 10088 10086 10084 10082 10080 10078 10076 10074 10073 10071 10070 10069 10069 10068 10067 10066 10064 10063 10061 10061 10059 10059 10058 10058 10057 10056 10056 10055 10054 10054 10053 10053 10052 10051 10051 10051 10051 10051 10050 10050 10050 10051 10051 10052 10053
10246 10241 10236 10230 10224 10217 10209 10203 10197 10192 10186 10181 10175 10169 10164 10159 10155 10151 10148 10145 10143 10139 10135 10131 10128 10124 10121 10118 10114 10113 10111 10108 10104 10099 10094 10091 10089 10088 10089 10088 10085 10082 10079 10078 10076 10074 10073 10071 10069 10067 10066 10064 10063 10063 10062 10061 10059 10058 10057 10056 10054 10054 10053 10053 10052 10051 10051 10050 10049 10049 10048 10048 10047 10046 10046 10046 10045 10045 10044 10044 10044 10044 10044 10044 10045 10046
10237 10231 10225 10220 10214 10208 10200 10193 10188 10183 10178 10172 10166 10161 10156 10151 10146 10143 10140 10137 10134 10131 10127 10124 10120 10117 10114 10111 10108 10106 10104 10101 10096 10092 10088 10084 10082 10082 10083 10081 10079 10076 10074 10072 10070 10069 10067 10065 10063 10061 10059 10058 10058 10056 10056 10054 10053 10052 10051 10049 10049 10048 10047 10046 10046 10046 10045 10044 10044 10043 10043 10042 10041 10041 10040 10040 10039 10039 10039 10038 10038 10038 10038 10039 10039 10040
10228 10221 10215 10209 10204 10199 10192 10184 10179 10174 10169 10164 10159 10153 10148 10143 10139 10135 10132 10129 10126 10122 10119 10116 10113 10109 10107 10104 10102 10099 10098 10094 10090 10085 10081 10078 10076 10076 10076 10076 10073 10070 10068 10066 10064 10063 10061 10059 10058 10056 10054 10053 10052 10051 10050 10049 10048 10046 10045 10044 10043 10043 10042 10041 10041 10040 10039 10039 10038 10038 10037 10036 10036 10035 10035 10034 10034 10034 10033 10033 10033 10033 10033 10033 10034 10034
10220 10213 10206 10200 10195 10189 10183 10177 10171 10166 10161 10156 10151 10146 10141 10136 10132 10128 10124 10121 10118 10114 10111 10108 10104 10102 10100 10098 10096 10093 10091 10088 10084 10079 10075 10071 10069 10069 10070 10069 10068 10065 10063 10061 10059 10058 10056 10054 10053 10051 10049 10048 10046 10046 10044 10043 10042 10041 10039 10039 10038 10037 10036 10036 10035 10034 10034 10033 10033 10032 10031 10031 10030 10030 10029 10029 10029 10028 10028 10028 10027 10027 10028 10028 10028 10029
10210 10204 10198 10191 10186 10180 10174 10169 10163 10158 10153 10148 10144 10139 10134 10129 10125 10121 10117 10114 10110 10107 10103 10100 10097 10094 10093 10091 10089 10088 10086 10083 10079 10074 10070 10066 10063 10063 10063 10063 10062 10059 10057 10056 10054 10053 10051 10049 10048 10046 10044 10043 10042 10041 10039 10038 10037 10036 10034 10033 10033 10032 10031 10031 10030 10029 10029 10028 10028 10026 10026 10026 10025 10024 10024 10024 10023 10023 10023 10022 10022 10022 10022 10022 10023 10023
10201 10194 10189 10183 10177 10171 10166 10161 10156 10151 10146 10141 10136 10131 10127 10122 10118 10114 10110 10107 10103 10100 10096 10093 10090 10088 10085 10084 10083 10081 10079 10078 10074 10069 10065 10061 10058 10057 10057 10057 10056 10054 10052 10051 10049 10048 10046 10045 10043 10042 10040 10038 10037 10036 10034 10033 10032 10031 10029 10029 10028 10027 10026 10026 10024 10024 10023 10023 10022 10021 10021 10020 10020 10019 10019 10019 10018 10018 10018 10017 10017 10017 10017 10017 10018 10018
10191 10186 10180 10174 10168 10163 10158 10153 10149 10144 10139 10135 10130 10124 10119 10115 10111 10107 10103 10100 10096 10093 10089 10086 10083 10081 10078 10076 10075 10074 10073 10072 10069 10064 10061 10057 10054 10052 10052 10051 10051 10048 10046 10045 10044 10043 10042 10040 10039 10037 10035 10034 10033 10031 10030 10029 10028 10026 10025 10024 10023 10022 10021 10021 10020 10019 10019 10018 10017 10016 10016 10015 10015 10015 10014 10014 10014 10013 10013 10012 10012 10012 10012 10012 10013 10013
10183 10177 10171 10166 10161 10156 10151 10146 10142 10138 10133 10129 10124 10119 10114 10109 10104 10100 10096 10093 10090 10086 10083 10080 10077 10074 10072 10070 10069 10068 10067 10066 10063 10060 10056 10053 10049 10048 10047 10047 10046 10043 10041 10040 10039 10039 10038 10036 10034 10033 10031 10029 10028 10027 10026 10024 10023 10022 10021 10020 10019 10018 10017 10016 10015 10014 10014 10013 10013 10011 10011 10011 10010 10010 10010 10009 10009 10008 10008 10008 10007 10007 10007 10008 10008 10008
10173 10168 10163 10158 10153 10148 10143 10139 10134 10131 10126 10123 10118 10113 10108 10103 10098 10094 10091 10087 10084 10081 10078 10074 10071 10068 10066 10064 10062 10061 10061 10060 10058 10054 10051 10048 10046 10044 10043 10042 10041 10039 10037 10035 10034 10034 10033 10032 10030 10029 10027 10025 10024 10023 10022 10021 10019 10018 10017 10016 10014 10014 10013 10011 10011 10010 10009 10009 10008 10007 10006 10006 10006 10006 10005 10005 10004 10004 10004 10003 10003 10003 10003 10003 10003 10003
10164 10159 10154 10149 10145 10140 10136 10131 10128 10124 10119 10116 10111 10107 10103 10098 10093 10089 10085 10082 10078 10075 10072 10069 10066 10063 10060 10058 10056 10054 10054 10054 10052 10049 10046 10044 10041 10039 10039 10038 10036 10034 10033 10031 10029 10029 10029 10028 10026 10024 10023 10021 10020 10019 10018 10016 10016 10014 10013 10012 10011 10009 10008 10008 10006 10006 10005 10004 10003 10003 10002 10001 10001 10001 10001 10001 10000 10000 9999 9999 9998 9998 9998 9998 9998 9999
10156 10151 10146 10142 10137 10133 10128 10124 10121 10117 10113 10109 10105 10101 10097 10093 10088 10084 10080 10076 10073 10069 10066 10064 10061 10058 10055 10052 10049 10048 10048 10048 10047 10044 10041 10039 10036 10035 10034 10033 10031 10030 10028 10026 10024 10024 10024 10024 10023 10021 10019 10018 10016 10015 10014 10013 10011 10011 10009 10008 10007 10006 10004 10003 10003 10001 10001 10000 9999 9998 9998 9997 9997 9996 9996 9996 9996 9996 9995 9995 9994 9994 9994 9994 9994 9994
10147 10143 10138 10134 10129 10126 10121 10117 10113 10109 10106 10102 10098 10094 10091 10086 10083 10079 10075 10071 10068 10065 10061 10058 10056 10053 10050 10048 10044 10043 10041 10041 10041 10039 10037 10034 10032 10030 10029 10028 10027 10026 10024 10023 10020 10019 10019 10021 10020 10018 10016 10014 10012 10011 10009 10008 10008 10006 10006 10004 10003 10002 10001 9999 9998 9998 9997 9996 9996 9994 9993 9993 9993 9993 9992 9992 9992 9992 9991 9991 9991 9990 9989 9989 9990 9990
10139 10134 10130 10126 10122 10118 10114 10110 10106 10103 10099 10095 10091 10088 10084 10081 10077 10074 10070 10067 10063 10060 10057 10053 10051 10048 10046 10043 10040 10038 10036 10035 10035 10034 10031 10029 10027 10025 10024 10024 10023 10021 10021 10019 10017 10015 10014 10015 10016 10016 10013 10011 10008 10007 10005 10004 10003 10003 10001 10001 9999 9998 9997 9996 9994 9994 9993 9993 9992 9991 9990 9989 9989 9988 9988 9988 9988 9988 9988 9987 9987 9986 9986 9986 9986 9986
10132 10128 10123 10119 10114 10111 10107 10103 10099 10096 10092 10088 10085 10081 10078 10075 10072 10069 10066 10062 10059 10056 10053 10049 10046 10043 10041 10038 10036 10033 10031 10030 10029 10028 10026 10024 10022 10020 10019 10019 10018 10017 10016 10015 10013 10011 10010 10009 10011 10011 10011 10008 10006 10004 10002 10000 9999 9998 9998 9997 9996 9995 9994 9993 9991 9990 9989 9989 9988 9988 9986 9986 9985 9984 9984 9984 9984 9984 9984 9983 9983 9983 9983 9982 9982 9983
10125 10121 10116 10112 10108 10104 10100 10096 10093 10089 10086 10082 10079 10075 10072 10069 10066 10063 10061 10058 10054 10051 10048 10045 10042 10039 10036 10033 10031 10028 10026 10025 10024 10023 10021 10019 10016 10015 10014 10013 10013 10012 10011 10011 10009 10008 10006 10005 10005 10006 10006 10005 10004 10001 9999 9997 9996 9994 9994 9993 9992 9991 9990 9989 9988 9987 9986 9986 9985 9984 9983 9982 9981 9981 9981 9980 9980 9980 9980 9980 9979 9979 9979 9979 9979 9979
10118 10114 10110 10106 10101 10098 10094 10090 10086 10083 10079 10076 10073 10069 10066 10064 10061 10058 10056 10053 10050 10047 10044 10041 10038 10035 10032 10029 10026 10023 10021 10020 10019 10018 10016 10014 10012 10010 10009 10008 10008 10007 10006 10006 10004 10004 10003 10002 10001 10001 10001 10001 10000 9999 9996 9994 9993 9991 9990 9989 9988 9987 9986 9985 9984 9983 9983 9982 9981 9981 9979 9979 9978 9978 9977 9977 9977 9976 9976 9976 9976 9976 9976 9976 9975 9975
10112 10108 10104 10099 10096 10091 10088 10084 10081 10078 10074 10071 10068 10064 10061 10058 10056 10053 10050 10048 10045 10043 10039 10037 10034 10031 10028 10025 10022 10019 10016 10015 10014 10013 10012 10010 10008 10006 10004 10003 10003 10003 10001 10001 10000 9999 9998 9998 9997 9997 9996 9996 9996 9995 9993 9991 9989 9988 9986 9986 9984 9983 9982 9981 9980 9979 9978 9978 9978 9977 9976 9976 9975 9974 9974 9974 9973 9973 9973 9973 9973 9973 9972 9972 9972 9972
10106 10101 10098 10094 10089 10086 10082 10078 10075 10072 10068 10065 10062 10059 10056 10053 10051 10048 10046 10043 10040 10038 10035 10033 10030 10028 10024 10022 10019 10015 10013 10010 10009 10008 10006 10005 10004 10002 10000 9999 9998 9998 9997 9996 9995 9995 9994 9993 9993 9993 9992 9991 9991 9991 9989 9988 9986 9984 9983 9983 9981 9980 9979 9978 9976 9975 9974 9974 9974 9973 9973 9972 9972 9971 9971 9970 9970 9969 9969 9969 9969 9969 9969 9969 9969 9969
10100 10096 10092 10088 10084 10080 10076 10073 10069 10066 10063 10060 10057 10054 10051 10048 10046 10043 10041 10038 10036 10033 10030 10028 10025 10023 10021 10018 10015 10012 10009 10006 10004 10003 10001 10000 9999 9998 9996 9994 9994 9994 9993 9992 9991 9990 9989 9989 9988 9988 9988 9988 9987 9986 9986 9984 9983 9981 9980 9979 9978 9978 9976 9974 9973 9972 9971 9971 9970 9970 9969 9969 9968 9968 9968 9967 9967 9966 9966 9966 9966 9965 9965 9965 9965 9965
10094 10090 10086 10082 10078 10074 10071 10068 10064 10061 10058 10055 10052 10049 10046 10043 10041 10038 10036 10033 10031 10028 10026 10023 10021 10018 10016 10014 10011 10009 10006 10003 10000 9998 9996 9995 9994 9993 9992 9990 9989 9989 9989 9988 9988 9986 9986 9985 9984 9984 9984 9984 9983 9983 9981 9981 9979 9978 9977 9976 9976 9974 9973 9972 9971 9969 9968 9968 9967 9966 9966 9966 9965 9965 9964 9964 9963 9963 9963 9963 9962 9962 9961 9961 9961 9961
10089 10084 10081 10077 10073 10069 10066 10063 10059 10056 10053 10050 10047 10044 10041 10038 10036 10033 10031 10029 10026 10024 10021 10018 10016 10014 10012 10010 10008 10005 10003 9999 9997 9994 9993 9991 9989 9988 9988 9986 9985 9984 9984 9984 9984 9983 9982 9981 9980 9980 9979 9979 9979 9979 9978 9977 9976 9974 9973 9973 9973 9972 9971 9969 9968 9966 9965 9964 9964 9964 9963 9963 9962 9962 9961 9961 9960 9959 9959 9959 9959 9958 9958 9958 9958 9958
10083 10079 10075 10071 10068 10064 10061 10058 10054 10051 10048 10046 10043 10039 10037 10034 10031 10029 10026 10024 10022 10019 10017 10014 10011 10009 10008 10006 10003 10001 9999 9996 9994 9991 9989 9987 9986 9984 9983 9982 9981 9980 9980 9980 9979 9979 9979 9978 9976 9976 9976 9975 9975 9974 9974 9973 9972 9971 9970 9969 9969 9969 9968 9967 9966 9964 9963 9962 9961 9961 9960 9959 9959 9959 9958 9958 9957 9956 9956 9956 9956 9955 9955 9955 9954 9954
10077 10073 10069 10066 10063 10059 10056 10053 10050 10047 10044 10041 10038 10035 10033 10029 10026 10024 10021 10019 10017 10014 10012 10009 10007 10004 10003 10001 9999 9998 9995 9993 9990 9988 9986 9983 9981 9980 9979 9978 9978 9977 9976 9976 9976 9975 9975 9974 9973 9973 9972 9971 9971 9971 9970 9969 9969 9968 9967 9966 9966 9966 9965 9964 9963 9962 9961 9959 9959 9958 9958 9957 9956 9956 9955 9955 9954 9954 9953 9953 9953 9952 9952 9952 9952 9952
10071 10068 10064 10061 10058 10054 10051 10049 10046 10043 10040 10038 10034 10031 10028 10025 10023 10019 10016 10014 10011 10009 10007 10004 10002 9999 9998 9996 9995 9993 9992 9989 9987 9984 9982 9980 9978 9976 9975 9974 9974 9973 9973 9972 9972 9971 9971 9971 9970 9969 9968 9968 9968 9967 9966 9966 9966 9965 9964 9963 9963 9962 9962 9961 9961 9959 9958 9958 9956 9956 9955 9954 9954 9953 9953 9952 9951 9951 9951 9950 9950 9949 9949 9949 9949 9949
10066 10063 10059 10056 10053 10049 10047 10044 10041 10039 10036 10033 10031 10028 10025 10022 10019 10015 10013 10009 10007 10004 10002 9999 9997 9994 9993 9991 9989 9989 9988 9986 9984 9982 9979 9977 9974 9973 9972 9971 9970 9970 9969 9969 9968 9968 9968 9968 9967 9966 9965 9964 9964 9963 9963 9963 9963 9962 9961 9961 9959 9959 9959 9958 9958 9957 9956 9955 9954 9953 9953 9952 9951 9951 9950 9949 9949 9949 9948 9948 9948 9947 9947 9946 9946 9946
10061 10058 10054 10051 10048 10045 10043 10039 10037 10034 10032 10029 10027 10024 10021 10018 10014 10011 10008 10005 10003 9999 9997 9994 9993 9990 9988 9986 9984 9983 9983 9982 9981 9979 9976 9974 9972 9969 9968 9968 9967 9966 9966 9966 9965 9964 9964 9964 9963 9963 9962 9961 9961 9960 9960 9960 9959 9959 9958 9958 9957 9956 9956 9956 9955 9954 9954 9953 9952 9951 9950 9949 9949 9948 9948 9948 9947 9946 9946 9946 9945 9944 9944 9944 9944 9943
10056 10053 10049 10046 10044 10041 10038 10035 10033 10030 10028 10026 10023 10020 10017 10014 10011 10008 10004 10001 9998 9996 9993 9991 9988 9986 9984 9982 9980 9979 9978 9977 9976 9975 9973 9971 9969 9967 9965 9964 9964 9963 9963 9963 9962 9962 9961 9961 9960 9959 9959 9958 9958 9958 9957 9957 9957 9956 9956 9956 9955 9954 9954 9953 9953 9952 9951 9951 9950 9949 9948 9948 9947 9946 9946 9946 9945 9944 9944 9943 9943 9943 9942 9942 9941 9941
10051 10048 10045 10042 10039 10036 10034 10031 10029 10026 10024 10021 10019 10016 10013 10010 10007 10004 10001 9998 9994 9991 9989 9986 9984 9982 9980 9978 9976 9974 9973 9973 9972 9971 9969 9968 9966 9964 9963 9961 9961 9960 9959 9959 9959 9959 9958 9958 9957 9957 9956 9956 9955 9955 9954 9954 9954 9954 9954 9953 9953 9952 9951 9951 9950 9949 9949 9948 9948 9947 9946 9946 9945 9944 9944 9944 9943 9943 9942 9941 9941 9940 9939 9939 9939 9938
10048 10044 10041 10038 10035 10033 10030 10028 10025 10023 10020 10018 10015 10013 10009 10006 10003 9999 9996 9993 9991 9988 9985 9983 9981 9978 9976 9974 9973 9971 9969 9968 9968 9967 9966 9964 9963 9961 9960 9959 9958 9958 9957 9956 9956 9956 9955 9954 9954 9954 9954 9953 9953 9953 9952 9952 9952 9951 9951 9951 9951 9950 9949 9949 9948 9948 9947 9946 9945 9944 9944 9944 9943 9943 9943 9942 9941 9941 9940 9939 9939 9938 9938 9937 9936 9936
10043 10040 10037 10034 10031 10028 10026 10023 10021 10019 10016 10014 10011 10009 10006 10003 9999 9996 9993 9989 9987 9984 9981 9979 9977 9975 9973 9971 9969 9968 9966 9965 9964 9963 9962 9961 9960 9959 9958 9956 9955 9954 9954 9954 9953 9953 9952 9952 9951 9951 9951 9951 9951 9951 9950 9949 9949 9949 9949 9949 9949 9948 9948 9947 9946 9946 9945 9944 9943 9943 9943 9942 9942 9941 9941 9940 9939 9939 9938 9938 9937 9936 9936 9935 9934 9934
10039 10036 10033 10030 10027 10024 10022 10019 10017 10014 10012 10009 10007 10004 10001 9999 9996 9993 9989 9986 9983 9980 9978 9976 9973 9971 9969 9968 9966 9965 9963 9962 9961 9959 9959 9958 9957 9956 9954 9954 9953 9952 9951 9951 9951 9950 9949 9949 9949 9949 9949 9949 9949 9948 9948 9948 9948 9948 9947 9947 9947 9946 9946 9945 9944 9944 9943 9942 9942 9941 9941 9941 9940 9940 9939 9938 9938 9937 9936 9936 9935 9934 9934 9933 9933 9933
10036 10033 10029 10026 10023 10021 10018 10016 10013 10011 10008 10006 10003 10000 9997 9994 9991 9988 9985 9983 9979 9977 9974 9973 9970 9968 9966 9964 9963 9961 9961 9959 9958 9957 9956 9954 9954 9953 9952 9951 9950 9949 9949 9948 9948 9948 9948 9947 9947 9947 9947 9947 9947 9946 9946 9946 9946 9946 9946 9945 9945 9944 9944 9943 9943 9942 9941 9941 9941 9940 9939 9939 9939 9938 9938 9937 9936 9936 9935 9934 9934 9933 9933 9932 9931 9931
10033 10029 10026 10023 10020 10017 10014 10012 10009 10007 10004 10002 9999 9996 9993 9990 9987 9984 9982 9979 9976 9974 9971 9969 9968 9965 9963 9961 9960 9959 9958 9956 9955 9954 9953 9952 9951 9950 9949 9949 9948 9948 9947 9946 9946 9946 9945 9945 9945 9945 9945 9945 9945 9944 9944 9944 9944 9944 9944 9944 9943 9943 9943 9942 9941 9941 9940 9939 9939 9939 9939 9938 9938 9937 9936 9936 9935 9934 9934 9933 9933 9932 9931 9930 9929 9929